TimeHST,TemperatureF,Dew PointF,Humidity,Sea Level PressureIn,VisibilityMPH,Wind Direction,Wind SpeedMPH,Gust SpeedMPH,PrecipitationIn,Events,Conditions,WindDirDegrees,DateUTC
12:53 AM,72.0,64.9,78,30.15,10.0,ENE,26.5,36.8,0.00,,Overcast,60,2012-12-17 10:53:00
1:53 AM,73.9,64.9,73,30.14,10.0,ENE,26.5,31.1,N/A,,Overcast,60,2012-12-17 11:53:00
2:53 AM,73.9,64.0,71,30.13,10.0,ENE,24.2,31.1,N/A,,Overcast,60,2012-12-17 12:53:00
3:53 AM,73.0,64.0,73,30.12,10.0,NE,24.2,33.4,N/A,,Overcast,50,2012-12-17 13:53:00
4:53 AM,73.0,63.0,71,30.12,10.0,ENE,25.3,34.5,N/A,,Scattered Clouds,60,2012-12-17 14:53:00
5:53 AM,72.0,63.0,73,30.14,10.0,NE,21.9,-,N/A,,Partly Cloudy,50,2012-12-17 15:53:00
6:53 AM,71.1,64.9,81,30.15,10.0,ENE,20.7,29.9,N/A,,Overcast,60,2012-12-17 16:53:00
7:53 AM,73.0,64.0,73,30.17,10.0,ENE,26.5,32.2,0.01,,Overcast,60,2012-12-17 17:53:00
8:53 AM,73.0,63.0,71,30.18,10.0,NE,21.9,31.1,N/A,,Mostly Cloudy,50,2012-12-17 18:53:00
9:53 AM,77.0,64.9,66,30.18,10.0,NE,19.6,28.8,N/A,,Mostly Cloudy,50,2012-12-17 19:53:00
10:53 AM,73.0,66.9,81,30.18,10.0,NE,24.2,29.9,0.00,,Overcast,50,2012-12-17 20:53:00
11:10 AM,77.0,66.2,69,30.18,10.0,ENE,23.0,29.9,N/A,,Overcast,60,2012-12-17 21:10:00
11:53 AM,75.0,64.0,69,30.16,10.0,ENE,26.5,32.2,N/A,,Mostly Cloudy,60,2012-12-17 21:53:00
2:53 PM,73.9,64.9,73,30.11,5.0,NE,23.0,31.1,0.00,Rain,Light Rain,50,2012-12-18 00:53:00
3:01 PM,73.4,64.4,73,30.11,9.0,ENE,24.2,-,0.00,Rain,Light Rain,60,2012-12-18 01:01:00
3:22 PM,73.4,64.4,73,30.11,10.0,ENE,24.2,-,0.00,,Overcast,60,2012-12-18 01:22:00
3:53 PM,75.0,64.0,69,30.11,10.0,ENE,24.2,31.1,0.00,,Mostly Cloudy,60,2012-12-18 01:53:00
4:24 PM,75.2,64.4,69,30.11,10.0,NE,20.7,31.1,N/A,,Overcast,50,2012-12-18 02:24:00
4:53 PM,75.0,64.9,71,30.11,10.0,ENE,24.2,29.9,N/A,,Overcast,60,2012-12-18 02:53:00
5:53 PM,73.9,64.9,73,30.12,10.0,ENE,26.5,32.2,N/A,,Overcast,60,2012-12-18 03:53:00
6:41 PM,73.4,66.2,78,30.13,10.0,NE,25.3,34.5,N/A,,Mostly Cloudy,50,2012-12-18 04:41:00
6:53 PM,73.0,66.0,79,30.13,10.0,ENE,25.3,32.2,N/A,,Mostly Cloudy,60,2012-12-18 04:53:00
7:02 PM,73.4,64.4,73,30.14,10.0,ENE,24.2,32.2,N/A,,Mostly Cloudy,60,2012-12-18 05:02:00
7:09 PM,73.4,66.2,78,30.14,10.0,ENE,25.3,33.4,N/A,,Overcast,60,2012-12-18 05:09:00
7:30 PM,73.4,66.2,78,30.14,10.0,ENE,18.4,26.5,0.00,,Overcast,60,2012-12-18 05:30:00
7:53 PM,73.9,66.0,76,30.14,10.0,ENE,23.0,34.5,0.00,,Mostly Cloudy,60,2012-12-18 05:53:00
8:03 PM,73.4,66.2,78,30.15,10.0,ENE,25.3,32.2,N/A,,Overcast,60,2012-12-18 06:03:00
8:53 PM,73.9,66.0,76,30.15,10.0,ENE,24.2,31.1,N/A,,Overcast,60,2012-12-18 06:53:00
9:53 PM,73.0,66.9,81,30.15,9.0,East,25.3,34.5,0.02,Rain,Light Rain,80,2012-12-18 07:53:00
10:22 PM,73.4,66.2,78,30.16,10.0,ENE,27.6,32.2,0.00,,Overcast,70,2012-12-18 08:22:00
10:35 PM,71.6,66.2,83,30.17,6.0,ENE,25.3,36.8,0.00,Rain,Light Rain,70,2012-12-18 08:35:00
10:53 PM,72.0,66.9,84,30.16,10.0,ENE,20.7,29.9,0.00,,Overcast,60,2012-12-18 08:53:00
11:10 PM,73.4,66.2,78,30.16,10.0,ENE,24.2,32.2,N/A,,Overcast,60,2012-12-18 09:10:00
11:38 PM,71.6,66.2,83,30.16,10.0,ENE,23.0,29.9,0.00,,Mostly Cloudy,70,2012-12-18 09:38:00
11:53 PM,73.0,66.9,81,30.15,10.0,ENE,23.0,-,0.00,,Mostly Cloudy,60,2012-12-18 09:53:00